EW7030 Weather Reports


time (UTC)temp
C
wind
direction
speed
KPH
gust
KPH
rain 1hr
cm
rain 24hr
cm
rain mn
cm
humidity
%
barometer
mb
20260509150047 10 58 0.0 1.6 0.10 1.09 0.64 1 1007.4
20260509144543 10 128 0.0 0.0 0.08 1.04 0.58 1 1007.4
20260509143038 10 143 0.0 0.0 0.08 1.02 0.56 1 1007.5
20260509141533 10 174 0.0 1.6 0.10 1.02 0.56 1 1007.6
20260509140029 9 25 0.0 0.0 0.08 0.99 0.53 1 1007.6
20260509134525 9 8 0.0 1.6 0.05 0.97 0.51 1 1007.6
20260509133022 9 134 0.0 0.0 0.05 0.94 0.48 1 1007.7
20260509131515 9 141 0.0 0.0 0.03 0.91 0.46 1 1007.8
20260509130013 8 224 0.0 3.2 0.05 0.91 0.46 1 1007.9
20260509124507 8 202 0.0 0.0 0.05 0.91 0.46 1 1007.9
20260509123007 8 100 0.0 0.0 0.03 0.89 0.43 1 1008.0
20260509121558 8 100 0.0 0.0 0.03 0.89 0.43 1 1008.1
20260509120058 8 100 0.0 0.0 0.00 0.86 0.41 1 1008.1
20260509114549 8 100 0.0 0.0 0.03 0.86 0.41 1 1008.1
20260509113045 7 100 0.0 0.0 0.05 0.86 0.41 1 1008.2
20260509111541 7 100 0.0 0.0 0.08 0.86 0.41 1 1008.4
20260509110037 7 100 0.0 0.0 0.15 0.86 0.41 1 1008.4
20260509104532 7 100 0.0 0.0 0.15 0.84 0.38 1 1008.3
20260509103028 7 100 0.0 0.0 0.15 0.81 0.36 1 1008.4
20260509101525 7 100 0.0 0.0 0.15 0.76 0.30 1 1008.4
20260509100022 7 100 0.0 0.0 0.13 0.71 0.25 1 1008.6
20260509094514 7 100 0.0 0.0 0.13 0.71 0.23 1 1008.7
20260509093010 7 100 0.0 0.0 0.10 0.69 0.20 1 1008.8
20260509091506 7 100 0.0 0.0 0.05 0.64 0.15 1 1008.8
20260509090003 7 100 0.0 0.0 0.03 0.61 0.13 1 1008.8
20260509084557 7 100 0.0 0.0 0.00 0.58 0.10 1 1008.9
20260509083053 7 100 0.0 0.0 0.00 0.58 0.10 1 1008.9
20260509081552 7 100 0.0 0.0 0.00 0.58 0.10 1 1008.8
20260509080043 7 100 0.0 0.0 0.00 0.58 0.10 1 1008.9
20260509074540 7 100 0.0 0.0 0.00 0.58 0.10 1 1009.1
20260509073035 7 100 0.0 0.0 0.00 0.58 0.10 1 1008.9
20260509071530 7 100 0.0 0.0 0.00 0.58 0.10 1 1009.1
20260509070026 7 100 0.0 0.0 0.00 0.58 0.10 1 1009.2
20260509064524 7 100 0.0 0.0 0.00 0.58 0.10 1 1009.4
20260509063018 7 100 0.0 0.0 0.00 0.58 0.10 1 1009.6
20260509061513 7 87 0.0 0.0 0.00 0.58 0.10 1 1009.7
20260509060009 7 77 0.0 0.0 0.03 0.58 0.10 1 1009.8
20260509054504 7 134 0.0 0.0 0.05 0.58 0.10 1 1010.3
20260509053200 7 134 0.0 0.0 0.05 0.58 0.10 1 1010.7
20260509051558 7 134 0.0 0.0 0.08 0.58 0.10 1 1010.9
20260509050107 8 134 0.0 0.0 0.08 0.56 0.08 1 1011.0
20260509044557 8 134 0.0 0.0 0.08 0.53 0.05 1 1011.1
20260509043042 8 134 0.0 0.0 0.08 0.51 0.03 1 1011.3
20260509041538 8 134 0.0 0.0 0.10 0.51 0.03 1 1011.4
20260509040033 8 134 0.0 0.0 0.10 0.48 0.00 1 1011.8
20260509034633 8 134 0.0 0.0 0.10 0.46 0.46 1 1011.8
20260509033032 8 134 0.0 0.0 0.10 0.43 0.43 1 1011.6
20260509031528 8 134 0.0 0.0 0.08 0.41 0.41 1 1011.5
20260509030034 8 134 0.0 0.0 0.05 0.38 0.38 1 1011.7
20260509024519 8 134 0.0 0.0 0.03 0.36 0.36 1 1011.8
20260509023024 8 134 0.0 0.0 0.00 0.33 0.33 1 1011.9
20260509021510 7 134 0.0 0.0 0.03 0.33 0.33 1 1011.8
20260509020010 8 134 0.0 0.0 0.03 0.33 0.33 1 1011.4
20260509014502 8 134 0.0 0.0 0.03 0.33 0.33 1 1011.2
20260509013101 8 134 0.0 0.0 0.03 0.33 0.33 1 1011.3
20260509011552 8 293 0.0 0.0 0.00 0.30 0.30 6 1011.4
20260509010049 8 290 0.0 0.0 0.03 0.30 0.30 15 1011.0
20260509004544 8 240 0.0 0.0 0.05 0.30 0.30 28 1010.5
20260509003055 8 250 0.0 0.0 0.05 0.30 0.30 36 1010.5
20260509001535 8 219 0.0 0.0 0.05 0.30 0.30 49 1010.2
20260509000037 9 192 0.0 0.0 0.03 0.28 0.28 69 1010.3
20260508234535 10 244 0.0 1.6 0.00 0.25 0.25 74 1010.3
20260508233022 10 3 0.0 0.0 0.00 0.25 0.25 75 1010.4
20260508231517 10 155 0.0 0.0 0.00 0.25 0.25 76 1010.4
20260508230013 10 211 0.0 0.0 0.00 0.25 0.25 73 1010.3
20260508224509 10 220 0.0 0.0 0.00 0.25 0.25 62 1010.3
20260508223005 10 250 0.0 1.6 0.00 0.25 0.25 60 1010.2
20260508221606 10 227 0.0 1.6 0.00 0.25 0.25 58 1010.3
20260508220055 10 307 0.0 1.6 0.00 0.25 0.25 48 1010.2
20260508214557 10 218 0.0 0.0 0.00 0.25 0.25 37 1010.2
20260508213047 10 105 0.0 0.0 0.00 0.25 0.25 28 1010.1
20260508211543 10 141 0.0 0.0 0.00 0.25 0.25 15 1010.3
20260508210038 9 300 0.0 0.0 0.00 0.25 0.25 20 1010.2
20260508204536 9 247 0.0 0.0 0.10 0.25 0.25 28 1010.3
20260508203031 9 269 0.0 0.0 0.10 0.25 0.25 31 1010.3
20260508201527 9 232 0.0 0.0 0.10 0.25 0.25 49 1010.2